Preview of NWS' New Version of Forecast
This preview is not operational and should not be used for support decisions.
Latest weather observations around

Bakersfield, Meadows Field Airport (KBFL)

Using International System of Units (Switch to English Units)
Date/ Time (PDT) Wind (kph) Vis. (km) Weather Sky Cond. Temp (°C) Rel. Humidity Wind Chill (°C) Heat Index (°C) Pressure Precip. (cm)
Air Dwpt 6 hour Altimeter (hPa) Sea level (hPa) 1 hr 3 hr 6 hr
Max Min
May 19 19:54 SE 11 16.09 Mostly Cloudy SCT035 SCT048 BKN065 13 9     77%     1010.5 1010.4 0 0  
May 19 18:54 ENE 13 16.09 Cloudy FEW055 OVC085 14 8     67%     1009.8 1009.6      
May 19 17:54 NE 22 16.09 Cloudy BKN050 OVC065 14 9     72%     1010.2 1009.8 0    
May 19 16:54 ENE 17 16.09 Cloudy OVC065 13 9     77%     1010.2 1009.9 0   0
May 19 16:49 ENE 21 16.09 Cloudy OVC065 13 9     77%     1010.2   0    
May 19 16:18 NE 22 4.02 Light Rain OVC050 12 9     83%     1010.5   0    
May 19 15:54 NE 18 14.48 Light Rain BKN050 OVC065 13 9     80%     1010.8 1010.7 0    
May 19 14:54 N 32 16.09 Light Rain OVC060 13 11     84%     1010.8 1010.7 0    
May 19 14:31   8.05 Light Rain BKN060 OVC080 13 10     80%     1010.8   0    
May 19 13:54 WNW 17 16.09 Partly Cloudy SCT095 19 3     36%     1009.8 1009.5      
May 19 12:54 W 18 16.09 Clear CLR 19 4     36%     1010.5 1010.3      
May 19 11:54   16.09 Partly Cloudy FEW034 FEW045 SCT050 18        %     1010.8 1010.6      
May 19 10:54 NW 18 16.09 Mostly Cloudy BKN055 BKN075 16 11     75%     1011.2 1010.9 0   0
May 19 10:06 NNW 17 16.09 Light Rain FEW023 SCT035 OVC044 13 11     86%     1010.8   0    
May 19 09:59 NW 21 4.02 Light Rain FEW018 BKN030 OVC040 13 11     84%     1011.2   0    
May 19 09:54 WNW 24 4.83 Heavy Rain and Fog/Mist FEW014 BKN023 OVC060 13 11     86%     1011.2 1010.7 0    
May 19 08:54 Calm 16.09 Cloudy FEW050 OVC070 16 10     69%     1010.2 1009.9      
May 19 07:54 Calm 16.09 Partly Cloudy SCT070 14 11     78%     1009.5 1009.3      
May 19 06:54 NW 8 16.09 Cloudy OVC075 13 11     86%     1009.2 1008.8      
May 19 05:54 NNW 11 16.09 Cloudy BKN050 BKN065 OVC080 13 11     86%     1008.5 1008.1      
May 19 04:54 Calm 16.09 Mostly Cloudy FEW060 BKN075 BKN090 13 9     80%     1007.8 1007.5     0
May 19 03:54 SE 11 16.09 Cloudy OVC090 12 11     90%     1008.8 1008.3      
May 19 02:54 ESE 22 16.09 Mostly Cloudy BKN080 BKN120 12 11     90%     1008.8 1008.4 0    
May 19 01:54 ESE 13 9.66 Light Rain and Fog/Mist OVC065 12 11     90%     1011.2 1010.7 0 0  
May 19 01:44 ESE 15 11.27 Light Rain FEW008 OVC065 12 10     89%     1011.2   0    
May 19 00:54 SE 11 16.09 Light Rain OVC065 12 10     89%     1012.2 1012 0    
May 18 23:54 ESE 8 16.09 Light Rain OVC070 12 10     89%     1012.5 1012.3 0    
May 18 22:54 NNW 15 16.09 Light Rain OVC060 11 9     89%     1013.2 1013 0   1
May 18 22:38 NNW 15 11.27 Light Rain FEW018 SCT026 OVC055 11 9     89%     1013.2   0    
May 18 22:22 NNW 17 6.44 Rain and Fog/Mist FEW007 BKN016 OVC021 11 9     89%     1013.2   0    
May 18 22:11 NNW 21 6.44 Rain and Fog/Mist FEW005 BKN010 OVC019 11 9     89%     1013.2   0    
May 18 22:01   6.44 Rain and Fog/Mist BKN007 BKN010 OVC026 12 11     93%     1013.2   0    
May 18 21:54 NNW 21 8.05 Rain and Fog/Mist BKN010 BKN024 OVC033 12 11     90%     1012.9 1012.6 0    
May 18 21:05 N 17 8.05 Light Rain and Fog/Mist BKN026 OVC032 12 10     86%     1012.5   0    
May 18 20:54 N 18 14.48 Light Rain FEW015 SCT026 OVC034 12 11     90%     1012.5 1012.2 0    
May 18 19:54 N 18 9.66 Light Rain FEW028 OVC038 13 10     83%     1012.5 1012.1 0 1  
May 18 18:54 N 17 8.05 Light Rain BKN050 OVC065 13 10     83%     1012.5 1012.2 0    
May 18 17:54 WNW 24 14.48 Light Rain BKN075 OVC090 15 11     75%     1012.5 1012.4 0    
May 18 16:54 WNW 22 16.09 Light Rain OVC080 20 10     53%     1012.2 1011.9 0   0
May 18 15:54 SW 18 16.09 Light Rain SCT075 OVC090 23 5     31%   22 1011.9 1011.4 0    
May 18 14:54 WNW 13 16.09 Partly Cloudy SCT110 23 6     33%   22 1012.5 1012      
May 18 13:54 Calm 16.09 Clear CLR 23 6     34%   22 1012.5 1012.2      
May 18 12:54 5 16.09 Clear CLR 22 7     38%   21 1013.2 1012.8      
May 18 11:54 W 13 16.09 Clear CLR 21 7     42%     1013.9 1013.4      
May 18 10:54 9 16.09 Clear CLR 19 7     47%     1014.2 1014      
May 18 09:54 5 16.09 Clear CLR 17 8     54%     1014.6 1014.1      
May 18 08:54 5 16.09 Clear CLR 16 8     60%     1014.9 1014.6      
May 18 07:54 SSE 8 16.09 Clear CLR 14 8     67%     1014.9 1014.5      
May 18 06:54 SE 8 16.09 Clear CLR 13 7     69%     1014.9 1014.7      
May 18 05:54 Calm 16.09 Clear CLR 11 6     71%     1014.9 1014.7      
May 18 04:54 ESE 5 16.09 Clear CLR 12 7     69%     1015.2 1014.8      
May 18 03:54 Calm 16.09 Clear CLR 12 7     71%     1015.2 1014.8      
May 18 02:54 Calm 16.09 Clear CLR 12 7     69%     1015.9 1015.4      
May 18 01:54 SE 11 16.09 Clear CLR 12 7     72%     1016.3 1016      
May 18 00:54 E 5 16.09 Clear CLR 14 7     60%     1016.9 1016.5      
May 17 23:54 SE 5 16.09 Clear CLR 14 7     60%     1017.3 1016.8      
May 17 22:54 Calm 16.09 Clear CLR 15 7     58%     1017.3 1016.9      
May 17 21:54 NNE 5 16.09 Clear CLR 16 7     54%     1017.3 1017.1      
May 17 20:54 NNW 9 16.09 Clear CLR 16 8     60%     1017.3 1016.9      
May 17 19:54 NW 11 16.09 Clear CLR 18 6     45%     1016.9 1016.5      
May 17 18:54 NNW 13 16.09 Clear CLR 19 4     38%     1016.6 1016.2      
May 17 17:54 NW 21 16.09 Clear CLR 20 5     37%     1016.9 1016.5      
May 17 16:54 W 18 16.09 Mostly Cloudy BKN055 20 5     37%     1017.3 1016.8      
May 17 15:54 WNW 15 16.09 Partly Cloudy SCT055 20 5     37%     1018 1017.5      
May 17 14:54 NW 18 16.09 Cloudy OVC060 19 5     39%     1018.3 1017.8      
May 17 13:54 8 16.09 Partly Cloudy FEW050 SCT060 18 5     42%     1018.6 1018.4      
May 17 12:54 NW 13 16.09 Cloudy OVC055 17 5     46%     1019.3 1019.1      
May 17 11:54 WNW 18 16.09 Mostly Cloudy BKN055 16 6     50%     1019.7 1019.3      
May 17 10:54 NW 15 16.09 Mostly Clear FEW034 16 6     52%     1019.3 1019.1      
May 17 10:14 NW 18 16.09 Partly Cloudy SCT027 SCT033 15 7     58%     1019.3        
May 17 10:03 NW 22 16.09 Mostly Cloudy BKN027 14 7     60%     1019.3        
May 17 09:54 NNW 18 16.09 Mostly Cloudy SCT025 BKN031 14 7     60%     1019.7 1019.2      
May 17 09:31 NW 22 16.09 Partly Cloudy SCT023 SCT060 14 7     64%     1019.7        
May 17 09:21 NW 22 16.09 Mostly Cloudy SCT021 BKN029 BKN060 13 8     69%     1019.7        
May 17 08:54 NW 21 16.09 Cloudy FEW019 OVC060 14 9     72%     1019.7 1019.2      
May 17 07:54 NNW 18 16.09 Cloudy OVC060 11 8     83%     1019.3 1019.1      
May 17 06:54 NW 17 16.09 Cloudy SCT037 OVC060 11 8     86%     1018.6 1018.5      
May 17 05:54 WNW 15 16.09 Mostly Cloudy BKN055 11 8     86%     1018.3 1018      
May 17 05:32 WNW 13 16.09 Mostly Clear FEW006 11 9     89%     1018        
May 17 04:54 WNW 11 16.09 Clear CLR 11 9     89%     1017.3 1017     0
May 17 03:54 NW 9 16.09 Clear CLR 12 9     86%     1017.3 1017.1      
May 17 02:54 NW 11 16.09 Partly Cloudy SCT070 12 10     86%     1017.6 1017.4      
May 17 01:54 NW 15 16.09 Cloudy BKN055 OVC080 12 11     90%     1017.6 1017.4   0  
May 17 00:54 NNW 11 16.09 Cloudy OVC050 13 10     83%     1017.6 1017.2 0    
May 16 23:54 NNW 13 16.09 Cloudy OVC043 13 11     86%     1017.3 1017      
May 16 22:54 NW 15 16.09 Cloudy OVC055 13 11     84%     1016.9 1016.7 0   0
May 16 21:54 NW 22 9.66 Rain FEW019 OVC042 13 11     84%     1016.9 1016.6 0    
May 16 21:32 NNW 21 11.27 Light Rain BKN036 OVC045 13 10     80%     1016.3   0    
May 16 21:24 NNW 22 4.02 Heavy Rain SCT033 BKN041 OVC070 13 10     80%     1016.3   0    
May 16 20:54 NW 11 16.09 Cloudy FEW044 OVC065 14 11     78%     1015.2 1014.9 0    
May 16 18:54   16.09 Clear   17 8     58%     1013.6 1013.3 0    
May 13 14:54 WNW 17 16.09 Clear CLR 27 7     29%   26 1012.9 1012.2      
May 12 17:54 WNW 28 16.09 Clear CLR 28 3     21%   27 1009.2 1008.7      
May 12 12:54 WSW 9 16.09 Clear CLR 26 5     27%   25 1011.5 1010.9      
May 12 00:54 E 9 16.09 Clear CLR 19 6     42%     1007.8 1007      
Jun 11 23:54 N 30 16.09 Mostly Cloudy BKN080 16 6     50%     1015.2 1014.9      
Jun 11 09:54 NNW 21 16.09 Mostly Clear FEW039 18 6     46%     1013.6 1013.2      
Jun 11 07:54 NNW 24 16.09 Clear CLR 16 7     54%     1012.9 1012.6      
Jun 10 21:54 N 9 16.09 Clear CLR 22 8     41%   21 1010.5 1009.9      
Jun 10 18:54 NW 17 16.09 Clear CLR 25 8     33%   24 1009.8 1009.3      
Jun 10 15:54 W 17 16.09 Clear CLR 25 8     35%   24 1010.8 1010.4      
Jun 10 08:54 NW 13 16.09 Cloudy OVC048 17 6     48%     1014.6 1014      
Jun 08 21:54 NW 22 16.09 Clear   24 9     37%   24 1013.2 1012.4      
Jun 08 14:01 W 17 14.48 Mostly Clear FEW001 31 3     17%   29 1013.9        
Jun 08 11:54 W 11 16.09 Clear CLR 27 8     29%   27 1014.9 1014.3      
Jun 08 06:54 ENE 8 16.09 Clear CLR 21 8     44%     1014.9 1014.1      
Jun 07 08:54 5 16.09 Clear CLR 26 7     31%   25 1011.5 1010.7